Weather History for San Jose, Costa Rica

Change the Weather History Date:

Friday, March 7, 2014

  Actual Average Record
Temperature  
Mean Temperature 74 °F -  
Max Temperature 86 °F 83 °F 89 °F (1998)
Min Temperature 62 °F 64 °F 60 °F (2008)
Cooling Degree Days 9    
Growing Degree Days 24 (Base 50)    
Moisture  
Dew Point 58 °F    
Average Humidity 61    
Maximum Humidity 88    
Minimum Humidity 14    
Precipitation  
Precipitation 0.00 in 0.04 in - ()
Sea Level Pressure  
Sea Level Pressure 29.98 in    
Wind  
Wind Speed 7 mph ()    
Max Wind Speed 21 mph    
Max Gust Speed 23 mph    
Visibility 8.2 miles    
Events      
Averages and records for this station are not official NWS values.
T = Trace of Precipitation, MM = Missing Value Source: Averaged Metar Reports

Daily Weather History Graph

Daily Weather History Graph

Search for Another Location

Airport:

Trip Planner

Search our weather history database for the weather conditions in past years. The results will help you decide how hot, cold, wet, or windy it might be!

Date:

Astronomy

Mar. 07, 2014 Rise Set
Actual Time 5:48 AM CST 5:47 PM CST
Civil Twilight 5:27 AM CST 6:08 PM CST
Nautical Twilight 5:02 AM CST 6:33 PM CST
Astronomical Twilight 4:38 AM CST 6:57 PM CST
Moon 10:46 AM CST (3/7) 11:38 PM CST (3/7)
Length of Visible Light 12h 41m
Length of Day
11h 59m
Waxing Crescent, 42% of the Moon is Illuminated
Mar 7
Waxing Crescent
Mar 8
First Quarter
Mar 16
Full
Mar 23
Last Quarter
Mar 30
New

Hourly Weather History & Observations

Time (CST) Temp. Heat Index Dew Point Humidity Pressure Visibility Wind Dir Wind Speed Gust Speed Precip Events Conditions
12:00 AM 66 °F - 61 °F 78% 29.88 in 12 mi East 3.5 mph - -  
12:00 AM 66.2 °F - 60.8 °F 83% 30.03 in - East 3.5 mph - N/A   Clear
1:00 AM 64.4 °F - 60.8 °F 88% 30.03 in - East 3.5 mph - N/A   Clear
2:00 AM 64.4 °F - 57.2 °F 77% 30.01 in - ENE 5.8 mph - N/A   Clear
3:00 AM 63 °F - 57 °F 75% 29.85 in 12 mi NE 4.6 mph - -  
3:00 AM 62.6 °F - 57.2 °F 82% 30.01 in - NE 4.6 mph - N/A   Clear
4:00 AM 64.4 °F - 57.2 °F 77% 30.02 in - NNE 6.9 mph - N/A   Clear
5:00 AM 64.4 °F - 57.2 °F 77% 30.02 in - East 4.6 mph - N/A   Clear
6:00 AM 64 °F - 58 °F 73% 29.90 in 12 mi ENE 4.6 mph - -  
6:00 AM 64.4 °F - 57.2 °F 77% 30.05 in - ENE 4.6 mph - N/A   Clear
7:00 AM 68.0 °F - 59.0 °F 73% 30.06 in 6.2 mi ENE 8.1 mph - N/A   Partly Cloudy
8:00 AM 75.2 °F - 60.8 °F 61% 30.07 in 6.2 mi East 10.4 mph - N/A   Partly Cloudy
9:00 AM 77 °F - 58 °F 42% 29.90 in 12 mi ESE 11.5 mph - -   Scattered Clouds
9:00 AM 77.0 °F - 59.0 °F 54% 30.07 in 6.2 mi ESE 11.5 mph 23.0 mph N/A   Partly Cloudy
10:00 AM 80.6 °F 80.3 °F 53.6 °F 39% 30.06 in 6.2 mi ESE 18.4 mph - N/A   Partly Cloudy
11:00 AM 82.4 °F - 48.2 °F 30% 30.04 in 6.2 mi ESE 20.7 mph - N/A   Partly Cloudy
12:00 PM 85 °F - 44 °F 14% 29.82 in 12 mi East 11.5 mph - -   Scattered Clouds
12:00 PM 84.2 °F - 44.6 °F 25% 30.01 in 6.2 mi East 11.5 mph 23.0 mph N/A   Partly Cloudy
1:00 PM 86.0 °F - 46.4 °F 25% 29.98 in 6.2 mi East 18.4 mph - N/A   Partly Cloudy
2:00 PM 86.0 °F - 51.8 °F 31% 29.96 in 6.2 mi East 13.8 mph - N/A   Partly Cloudy
3:00 PM 82 °F - 62 °F 42% 29.78 in 12 mi SW 9.2 mph - -  
3:00 PM 82.4 °F 83.4 °F 62.6 °F 51% 29.95 in 6.2 mi SW 9.2 mph - N/A   Partly Cloudy
4:00 PM 82.4 °F 83.9 °F 64.4 °F 54% 29.95 in 6.2 mi WSW 12.7 mph - N/A   Partly Cloudy
5:00 PM 78.8 °F - 64.4 °F 61% 29.97 in 6.2 mi WSW 11.5 mph - N/A   Scattered Clouds
6:00 PM 74 °F - 66 °F 71% 29.85 in 12 mi WSW 8.1 mph - -  
6:00 PM 75.2 °F - 66.2 °F 73% 30.00 in 6.2 mi WSW 8.1 mph - N/A   Scattered Clouds
7:00 PM 71.6 °F - 66.2 °F 83% 30.02 in 6.2 mi WSW 5.8 mph - N/A   Partly Cloudy
8:00 PM 71.6 °F - 60.8 °F 69% 30.05 in 6.2 mi SSE 4.6 mph - N/A   Partly Cloudy
8:30 PM 71.6 °F - 59.0 °F 64% 30.06 in 6.2 mi East 8.1 mph - N/A   Partly Cloudy
9:00 PM 70 °F - 60 °F 62% 29.88 in 12 mi East 5.8 mph - -  
9:00 PM 69.8 °F - 59.0 °F 68% 30.06 in - East 5.8 mph - N/A   Clear
10:00 PM 69.8 °F - 60.8 °F 73% 30.08 in - East 11.5 mph - N/A   Clear
11:00 PM 69.8 °F - 57.2 °F 64% 30.07 in - East 11.5 mph - N/A   Clear